STARLINK-1827 (46724 NORAD) Tracking and Keplerian Element Data

This shows tracking and keplerian element data for the satellite.

Feedback or suggestion? Click here.




ElementValue
Catalog46724
NameSTARLINK-1827
Epoch Orbit729
Epoch Day335.83336806
Epoch Year2020
RAAN256.2637
Inclination53.0552
Eccentricity0.0001313
Argument of Perigee68.2493
Mean Anonmoly47.8379
Mean Motion15.62748817
Decay Rate-0.00037212
L11 46724U 20073BG 20335.83336806 -.00037212 00000-0 -40250-3 0 9996
L22 46724 53.0552 256.2637 0001313 68.2493 47.8379 15.62748817 7291

Live tracking and technical data element details for STARLINK-1827 (NORAD 46724). STARLINK-1827 can be tracked NOW for your location showing map with azimuth and elevation plus other details from your city location.

Track the satellite on the map from your city or location and see movement details for azimuth, elevation, latitude, longitude, range, height, and movement on the map or in text.







IsCatalogInMostPopularTable: catalog: 46724, numindb: 10
Update: records affected: 1



GetName: 46724 STARLINK-1827

Hit Count: updated at: Tue, 01 Dec 2020 20:41:36 GMT